Iron Mountain, MI

12:37 AM CST on January 24, 2018 (GMT -0600)
Ford

Weather History for KIMT - February, 2014

Change the Weather History Date:

Sunday, February 23, 2014

  Actual Average Record
Temperature  
Mean Temperature 10 °F -  
Max Temperature 18 °F 33 °F 51 °F (1961)
Min Temperature 3 °F 11 °F -20 °F (1967)
Degree Days  
Heating Degree Days 54    
Moisture  
Dew Point 1 °F    
Average Humidity 66    
Maximum Humidity 79    
Minimum Humidity 45    
Precipitation  
Precipitation 0.00 in - - ()
Sea Level Pressure  
Sea Level Pressure 29.98 in    
Wind  
Wind Speed 10 mph (WNW)    
Max Wind Speed 15 mph    
Max Gust Speed 25 mph    
Visibility 8 miles    
Events Snow    
Averages and records for this station are not official NWS values.
T = Trace of Precipitation, MM = Missing Value Source: NWS Daily Summary

Daily Weather History Graph

Daily Weather History Graph

Search for Another Location

Airport or City:

Trip Planner

Search our weather history database for the weather conditions in past years. The results will help you decide how hot, cold, wet, or windy it might be!

Date:

Astronomy

Feb. 23, 2014 Rise Set
Actual Time 6:41 AM CST 5:30 PM CST
Civil Twilight 6:11 AM CST 6:00 PM CST
Nautical Twilight 5:36 AM CST 6:35 PM CST
Astronomical Twilight 5:02 AM CST 7:09 PM CST
Moon 1:48 AM CST (2/23) 11:23 AM CST (2/23)
Length of Visible Light 11h 49m
Length of Day
10h 49m
Last Quarter, 38% of the Moon is Illuminated
Feb 23
Last Quarter
Mar 1
New
Mar 8
First Quarter
Mar 16
Full
Mar 23
Last Quarter

Hourly Weather History & Observations

Time (CST) Temp. Windchill Dew Point Humidity Pressure Visibility Wind Dir Wind Speed Gust Speed Precip Events Conditions
12:54 AM 7.0 °F -6.6 °F -0.9 °F 70% 29.91 in 10.0 mi West 9.2 mph - N/A   Clear
1:54 AM 7.0 °F -7.5 °F -2.0 °F 67% 29.92 in 10.0 mi West 10.4 mph - N/A   Clear
2:54 AM 6.1 °F -10.9 °F -2.0 °F 69% 29.93 in 10.0 mi West 13.8 mph 18.4 mph N/A   Clear
3:54 AM 5.0 °F -10.0 °F -2.9 °F 70% 29.94 in 10.0 mi West 10.4 mph 17.3 mph N/A   Scattered Clouds
4:54 AM 3.9 °F -11.3 °F -4.0 °F 70% 29.96 in 10.0 mi West 10.4 mph - N/A   Partly Cloudy
5:54 AM 3.0 °F -12.5 °F -4.0 °F 73% 29.97 in 10.0 mi West 10.4 mph - N/A   Clear
6:54 AM 3.0 °F -12.5 °F -4.0 °F 73% 29.98 in 10.0 mi West 10.4 mph - N/A   Clear
7:54 AM 3.9 °F -9.4 °F -4.0 °F 70% 29.99 in 10.0 mi West 8.1 mph 17.3 mph N/A   Clear
8:54 AM 6.1 °F -9.5 °F -4.0 °F 63% 29.99 in 10.0 mi West 11.5 mph - N/A   Clear
9:54 AM 8.1 °F -9.0 °F -2.9 °F 61% 30.01 in 10.0 mi West 15.0 mph 21.9 mph N/A   Partly Cloudy
10:54 AM 10.9 °F -2.6 °F -2.0 °F 56% 30.00 in 10.0 mi WNW 10.4 mph - N/A   Clear
11:54 AM 12.9 °F -0.9 °F -0.9 °F 54% 29.99 in 10.0 mi West 11.5 mph - N/A   Partly Cloudy
12:54 PM 15.1 °F 2.5 °F -0.0 °F 51% 29.98 in 10.0 mi West 10.4 mph - N/A   Scattered Clouds
1:54 PM 17.1 °F 5.0 °F 1.0 °F 50% 29.97 in 10.0 mi West 10.4 mph 18.4 mph N/A   Partly Cloudy
2:54 PM 18.0 °F 6.9 °F -0.0 °F 45% 29.96 in 10.0 mi West 9.2 mph 19.6 mph N/A   Scattered Clouds
3:54 PM 18.0 °F 5.4 °F 1.0 °F 48% 29.97 in 10.0 mi West 11.5 mph 20.7 mph N/A   Mostly Cloudy
4:54 PM 16.0 °F 3.6 °F 1.0 °F 52% 29.99 in 10.0 mi WNW 10.4 mph 25.3 mph N/A   Overcast
5:50 PM 15.8 °F 3.4 °F 6.8 °F 68% 29.93 in 3.0 mi WNW 10.4 mph - 0.00 in Snow Light Snow
5:54 PM 15.1 °F 1.8 °F 7.0 °F 70% 30.02 in 2.5 mi WNW 11.5 mph - 0.00 in Snow Light Snow
6:08 PM 14.0 °F 3.9 °F 8.6 °F 79% 29.94 in 1.8 mi WNW 6.9 mph - 0.00 in Snow Light Snow
6:14 PM 14.0 °F 3.9 °F 8.6 °F 79% 29.94 in 3.0 mi WNW 6.9 mph - 0.00 in Snow Light Snow
6:30 PM 14.0 °F 6.5 °F 8.6 °F 79% 29.94 in 8.0 mi West 4.6 mph - 0.00 in   Overcast
6:54 PM 14.0 °F 6.5 °F 7.0 °F 74% 30.03 in 8.0 mi Variable 4.6 mph - 0.00 in   Overcast
7:54 PM 14.0 °F 3.9 °F 6.1 °F 71% 30.03 in 10.0 mi West 6.9 mph - N/A   Overcast
8:54 PM 12.0 °F -2.7 °F 5.0 °F 73% 30.04 in 4.0 mi NW 12.7 mph - 0.00 in Snow Light Snow
9:24 PM 12.2 °F 0.7 °F 5.0 °F 73% 29.96 in 6.0 mi WNW 8.1 mph - 0.00 in Snow Light Snow
9:54 PM 12.0 °F -1.3 °F 3.9 °F 70% 30.04 in 10.0 mi WNW 10.4 mph 19.6 mph 0.00 in   Overcast
10:54 PM 10.9 °F -2.6 °F 1.9 °F 67% 30.05 in 10.0 mi NW 10.4 mph 16.1 mph N/A   Scattered Clouds
11:54 PM 9.0 °F -4.2 °F 1.0 °F 70% 30.05 in 10.0 mi NW 9.2 mph - N/A   Mostly Cloudy